TimeMST,TemperatureF,Dew PointF,Humidity,Sea Level PressureIn,VisibilityMPH,Wind Direction,Wind SpeedMPH,Gust SpeedMPH,PrecipitationIn,Events,Conditions,WindDirDegrees,DateUTC
12:53 AM,46.0,26.1,46,29.78,10.0,West,17.3,-,N/A,,Clear,270,2012-11-08 07:53:00
1:53 AM,43.0,26.1,51,29.80,10.0,West,16.1,-,N/A,,Clear,280,2012-11-08 08:53:00
2:53 AM,42.1,27.0,55,29.80,10.0,West,13.8,-,N/A,,Clear,280,2012-11-08 09:53:00
3:53 AM,41.0,28.9,62,29.81,10.0,West,15.0,-,N/A,,Clear,280,2012-11-08 10:53:00
4:53 AM,41.0,28.9,62,29.85,10.0,West,16.1,-,N/A,,Clear,270,2012-11-08 11:53:00
5:53 AM,42.1,28.0,58,29.87,10.0,West,12.7,-,N/A,,Clear,270,2012-11-08 12:53:00
6:53 AM,45.0,26.1,48,29.89,10.0,WNW,13.8,-,N/A,,Clear,290,2012-11-08 13:53:00
7:53 AM,48.0,25.0,41,29.92,10.0,NNW,17.3,-,N/A,,Clear,340,2012-11-08 14:53:00
8:53 AM,46.9,30.0,52,29.94,10.0,North,19.6,24.2,N/A,,Clear,10,2012-11-08 15:53:00
9:53 AM,50.0,32.0,50,29.94,10.0,NE,9.2,-,N/A,,Clear,40,2012-11-08 16:53:00
10:53 AM,53.1,32.0,45,29.91,10.0,NNE,15.0,-,N/A,,Clear,30,2012-11-08 17:53:00
11:53 AM,55.9,32.0,40,29.88,10.0,NNE,8.1,-,N/A,,Clear,30,2012-11-08 18:53:00
12:53 PM,57.0,32.0,39,29.86,10.0,Variable,5.8,-,N/A,,Clear,0,2012-11-08 19:53:00
1:53 PM,57.9,30.9,36,29.83,10.0,NE,10.4,-,N/A,,Clear,50,2012-11-08 20:53:00
2:53 PM,57.9,32.0,37,29.83,10.0,East,12.7,-,N/A,,Clear,80,2012-11-08 21:53:00
3:53 PM,54.0,30.9,41,29.84,10.0,East,11.5,-,N/A,,Clear,90,2012-11-08 22:53:00
4:53 PM,46.9,30.9,54,29.87,10.0,East,9.2,-,N/A,,Clear,100,2012-11-08 23:53:00
5:53 PM,44.1,30.9,60,29.87,10.0,East,8.1,-,N/A,,Clear,100,2012-11-09 00:53:00
6:53 PM,44.1,30.9,60,29.85,10.0,ESE,16.1,-,N/A,,Clear,120,2012-11-09 01:53:00
7:53 PM,41.0,30.9,67,29.84,10.0,ESE,12.7,-,N/A,,Clear,110,2012-11-09 02:53:00
8:53 PM,39.9,30.9,70,29.83,10.0,ESE,12.7,-,N/A,,Clear,120,2012-11-09 03:53:00
9:53 PM,39.0,30.9,73,29.82,10.0,SE,12.7,-,N/A,,Clear,130,2012-11-09 04:53:00
10:53 PM,39.0,30.0,70,29.79,10.0,SSE,11.5,-,N/A,,Clear,150,2012-11-09 05:53:00
11:53 PM,37.0,30.0,76,29.79,10.0,SSW,3.5,-,N/A,,Clear,210,2012-11-09 06:53:00